Home   Weather   Sidon   Past weeks

Flag for Lebanon Past Weather in Sidon, Lebanon — Yesterday and Last 2 Weeks

Now
84 °F

Passing clouds.


Feels Like: 94 °F
Forecast: 80 / 90 °F
Wind: 7 mph from South

Location: Beirut Airport

Current Time: Jul 28, 2017 at 1:55:19 am

Latest Report: Jul 28, 2017 at 1:00 am


Visibility: 5 mi

Pressure: 29.80 "Hg

Humidity: 79%

Dew Point: 77 °F

Location of SidonLocation

Past Weather in Sidon — Graph

°F

Sidon Temperature Yesterday

Maximum temperature yesterday: 90 °F (at 3:00 pm)
Minimum temperature yesterday: 82 °F (at 1:00 am)
Average temperature yesterday: 86 °F

High & Low Weather Summary for the Past Weeks

 TemperatureHumidityPressure
High90 °F (Jul 26, 3:00 pm)84% (Jul 14, 8:00 pm)29.86 "Hg (Jul 14, 8:00 pm)
Low79 °F (Jul 13, 3:00 am)35% (Jul 26, 4:00 am)29.62 "Hg (Jul 13, 5:00 pm)
Average84 °F68%29.73 "Hg
* Reported Jul 13 1:00 am — Jul 28 1:00 am, Sidon. Weather by CustomWeather, © 2017

Note: Actual official high and low records may vary slightly from our data, if they occured in-between our weather recording intervals... More about our weather records

Advertising

Sidon Weather History for the Previous 24 Hours

Scroll right to see more
 ConditionsComfort  
Time TempWeatherWind HumidityBarometerVisibility
1:00 am
Fri, Jul 28
84 °FPassing clouds.7 mph79%29.80 "Hg5 mi
12:00 am84 °FPassing clouds.5 mph66%29.77 "Hg5 mi
11:00 pm
Thu, Jul 27
84 °FPassing clouds.5 mph79%29.77 "Hg5 mi
10:00 pm86 °FPassing clouds.6 mph79%29.77 "Hg5 mi
9:00 pm86 °FPassing clouds.5 mph75%29.77 "Hg5 mi
8:00 pm86 °FPassing clouds.5 mph75%29.77 "Hg5 mi
7:00 pm88 °FPassing clouds.5 mph66%29.74 "Hg5 mi
6:00 pm88 °FPassing clouds.5 mph62%29.74 "Hg5 mi
5:00 pm88 °FPassing clouds.6 mph66%29.74 "Hg5 mi
4:00 pm88 °FPassing clouds.7 mph70%29.74 "Hg5 mi
3:00 pm90 °FPassing clouds.7 mph71%29.74 "Hg5 mi
2:00 pm88 °FPassing clouds.8 mph70%29.74 "Hg4 mi
1:00 pm88 °FPassing clouds.8 mph70%29.77 "Hg4 mi
12:00 pm88 °FPassing clouds.9 mph70%29.77 "Hg4 mi
11:00 am88 °FPassing clouds.12 mph75%29.77 "Hg4 mi
10:00 am86 °FPassing clouds.12 mph79%29.77 "Hg4 mi
9:00 am88 °FPassing clouds.10 mph70%29.77 "Hg4 mi
8:00 am86 °FPassing clouds.8 mph59%29.74 "Hg4 mi
7:00 am84 °FSunny.3 mph48%29.74 "Hg5 mi
6:00 am82 °FSunny.1 mph45%29.71 "Hg5 mi
5:00 am82 °FClear.2 mph51%29.71 "Hg5 mi
4:00 am82 °FClear.2 mph58%29.71 "Hg5 mi
3:00 am82 °FClear.3 mph70%29.71 "Hg4 mi
2:00 am82 °FClear.2 mph79%29.74 "Hg4 mi
1:00 am82 °FClear.2 mph84%29.74 "Hg4 mi
Weather by CustomWeather, © 2017

See weather overviewHow to use our weather pages